Flag for Australia Weather past 2 weeks in Darwin, Northern Territory, Australia

Now
82 °F

Passing clouds.


Feels Like: 86 °F
Forecast: 72 / 89 °F
Wind: 5 mph from Southwest

Location: Darwin Airport

Current Time: Sep 22, 2014 at 9:52:47 AM

Latest Report: Sep 22, 2014 at 9:30 AM


Visibility: N/A

Pressure: 30.01 "Hg

Humidity: 66%

Dew point: 70 °F

Location of DarwinLocation

Historic Weather in Darwin — Graph

°F

Darwin temperature yesterday

Maximum temperature yesterday: 90 °F (at 1:00 PM)
Minimum temperature yesterday: 75 °F (at 4:30 AM)
Average temperature yesterday: 83 °F

Past Weeks' High & Low Weather Summary

 TemperatureHumidityPressure
High97 °F (Sep 19, 1:00 PM)100% (Sep 10, 4:30 AM)30.04 "Hg (Sep 10, 4:30 AM)
Low68 °F (Sep 10, 4:30 AM)9% (Sep 19, 1:30 PM)29.80 "Hg (Sep 14, 2:30 PM)
Average81 °F65%29.92 "Hg
* Reported Sep 7 8:30 AM — Sep 22 8:30 AM, Darwin, Weather by CustomWeather, © 2014

Note: Actual official high and low records may vary slightly from our data, if they occured in-between our weather recording intervals... More about our weather records

Advertising

Darwin weather history for previous 24 hours

 ConditionsComfort  
Time TempWeatherWind HumidityBarometerVisibility
8:30 AM
Sep 22
81 °FSunny.6 mph74%29.98 "Hg10 mi
8:00 AM77 °FSunny.5 mph83%29.98 "Hg10 mi
7:30 AM75 °FSunny.6 mph89%29.98 "Hg10 mi
7:00 AM72 °FClear.6 mph88%29.95 "Hg10 mi
6:30 AM72 °FClear.5 mph88%29.95 "Hg10 mi
5:30 AM73 °FClear.3 mph89%29.92 "Hg10 mi
5:00 AM73 °FClear.No wind89%29.92 "Hg10 mi
4:30 AM73 °FClear.5 mph89%29.89 "Hg10 mi
3:30 AM73 °FClear.5 mph89%29.92 "Hg10 mi
3:00 AM73 °FClear.5 mph89%29.89 "Hg10 mi
2:30 AM73 °FClear.6 mph89%29.89 "Hg10 mi
2:00 AM77 °FClear.6 mph79%29.92 "Hg10 mi
1:30 AM75 °FClear.6 mph83%29.92 "Hg10 mi
1:00 AM75 °FClear.6 mph83%29.92 "Hg10 mi
12:30 AM77 °FClear.6 mph79%29.95 "Hg10 mi
11:30 PM
Sep 21
79 °FPassing clouds.7 mph74%29.95 "HgN/A
11:00 PM79 °FPassing clouds.7 mph74%29.95 "HgN/A
10:30 PM81 °FPassing clouds.8 mph70%29.95 "HgN/A
10:00 PM81 °FPassing clouds.9 mph70%29.95 "HgN/A
9:30 PM81 °FPassing clouds.10 mph70%29.92 "HgN/A
9:00 PM81 °FClear.12 mph70%29.92 "Hg10 mi
8:30 PM81 °FClear.13 mph70%29.92 "Hg10 mi
8:00 PM81 °FClear.12 mph70%29.92 "Hg10 mi
7:30 PM82 °FClear.12 mph62%29.89 "Hg10 mi
6:30 PM84 °FSunny.7 mph43%29.86 "HgN/A
6:00 PM86 °FSunny.8 mph38%29.86 "Hg10 mi
5:30 PM88 °FSunny.9 mph38%29.86 "Hg10 mi
5:00 PM88 °FSunny.13 mph38%29.86 "Hg10 mi
4:30 PM88 °FSunny.14 mph40%29.86 "Hg10 mi
4:00 PM88 °FSunny.17 mph52%29.86 "Hg10 mi
3:30 PM88 °FSunny.17 mph52%29.86 "Hg10 mi
2:30 PM90 °FSunny.15 mph46%29.86 "Hg10 mi
2:00 PM90 °FSunny.14 mph46%29.86 "Hg10 mi
1:30 PM88 °FSunny.15 mph49%29.89 "Hg10 mi
1:00 PM90 °FSunny.13 mph46%29.89 "Hg10 mi
12:30 PM88 °FSunny.13 mph49%29.92 "Hg10 mi
12:00 PM88 °FSunny.13 mph49%29.95 "Hg10 mi
11:30 AM88 °FSunny.10 mph38%29.95 "Hg10 mi
11:00 AM88 °FPassing clouds.9 mph40%29.98 "HgN/A
10:30 AM86 °FPassing clouds.8 mph49%29.98 "HgN/A
10:00 AM86 °FPassing clouds.7 mph52%29.98 "HgN/A
9:30 AM84 °FPassing clouds.6 mph51%29.98 "HgN/A
9:00 AM81 °FSunny.7 mph70%29.98 "Hg10 mi
Weather by CustomWeather, © 2014

See weather overviewHow to use our weather pages